,,PA_Meas_PMT16A,,PR_Meas_QMR101_102,,RH_Meas_QMH101,,SR_Meas_QMS101,,TA_Meas_QMH101,,GenWind,,GenWind,
time,status,PA,status,PR,status,RH,status,SR,status,TA,status,DirAvg,status,SpdAvg,
2010-09-16, 00:00:04,VALID,918.489,VALID,0,VALID,95.2088,VALID,0,VALID,19.3113,VALID,146,VALID,0.476953,
2010-09-16, 00:01:04,VALID,918.473,VALID,0,VALID,95.3537,VALID,0,VALID,19.3308,VALID,146,VALID,0.021875,
2010-09-16, 00:02:04,VALID,918.441,VALID,0,VALID,95.3232,VALID,0,VALID,19.3113,VALID,146,VALID,0.496094,
2010-09-16, 00:03:04,VALID,918.411,VALID,0,VALID,95.3003,VALID,0.107441,VALID,19.3113,VALID,146,VALID,0.918359,
2010-09-16, 00:04:04,VALID,918.416,VALID,0,VALID,95.247,VALID,0,VALID,19.3113,VALID,146,VALID,0.928125,
2010-09-16, 00:05:04,VALID,918.382,VALID,0,VALID,95.2393,VALID,0,VALID,19.2918,VALID,146,VALID,1.025,
2010-09-16, 00:06:04,VALID,918.392,VALID,0,VALID,95.2088,VALID,0,VALID,19.2723,VALID,146,VALID,0.774219,
2010-09-16, 00:07:04,VALID,918.392,VALID,0,VALID,95.2927,VALID,0,VALID,19.2723,VALID,146,VALID,0.521875,
2010-09-16, 00:08:04,VALID,918.381,VALID,0.2,VALID,95.4071,VALID,0,VALID,19.2528,VALID,146,VALID,0.476953,
2010-09-16, 00:09:04,VALID,918.395,VALID,0,VALID,95.468,VALID,0,VALID,19.2723,VALID,146,VALID,0.3,
2010-09-16, 00:10:04,VALID,918.434,VALID,0,VALID,95.468,VALID,0,VALID,19.2528,VALID,146,VALID,0.255078,
2010-09-16, 00:11:04,VALID,918.424,VALID,0,VALID,95.468,VALID,0,VALID,19.2334,VALID,146,VALID,0.578516,
2010-09-16, 00:12:04,VALID,918.455,VALID,0,VALID,95.4299,VALID,0.107441,VALID,19.2124,VALID,146,VALID,0.460156,
2010-09-16, 00:13:04,VALID,918.499,VALID,0,VALID,95.3918,VALID,0.107441,VALID,19.2139,VALID,146,VALID,0.482031,
2010-09-16, 00:14:04,VALID,918.51,VALID,0,VALID,95.4299,VALID,0,VALID,19.2139,VALID,146,VALID,0.604688,
2010-09-16, 00:15:04,VALID,918.536,VALID,0,VALID,95.4528,VALID,0,VALID,19.1944,VALID,146,VALID,0.405078,
2010-09-16, 00:16:04,VALID,918.539,VALID,0,VALID,95.4833,VALID,0,VALID,19.1944,VALID,146,VALID,0.55625,
2010-09-16, 00:17:04,VALID,918.515,VALID,0,VALID,95.468,VALID,0,VALID,19.1554,VALID,146,VALID,1.07305,
2010-09-16, 00:18:04,VALID,918.518,VALID,0,VALID,95.5519,VALID,0,VALID,19.1763,VALID,145,VALID,0.813281,
2010-09-16, 00:19:04,VALID,918.497,VALID,0,VALID,95.6281,VALID,0,VALID,19.1554,VALID,145,VALID,1.20508,
2010-09-16, 00:20:04,VALID,918.478,VALID,0,VALID,95.6815,VALID,0,VALID,19.1359,VALID,145,VALID,0.70625,
2010-09-16, 00:21:04,VALID,918.47,VALID,0,VALID,95.7425,VALID,0.107441,VALID,19.1554,VALID,145,VALID,0.523047,
2010-09-16, 00:22:04,VALID,918.474,VALID,0,VALID,95.7882,VALID,0.107441,VALID,19.1359,VALID,145,VALID,0.440625,
2010-09-16, 00:23:04,VALID,918.468,VALID,0,VALID,95.8492,VALID,0,VALID,19.1359,VALID,145,VALID,0.0632813,
2010-09-16, 00:24:04,VALID,918.473,VALID,0,VALID,95.9178,VALID,0,VALID,19.1554,VALID,145,VALID,0.735937,
2010-09-16, 00:25:04,VALID,918.479,VALID,0,VALID,95.9864,VALID,0.107441,VALID,19.1359,VALID,145,VALID,1.03984,
2010-09-16, 00:26:04,VALID,918.471,VALID,0,VALID,96.0245,VALID,0,VALID,19.1359,VALID,145,VALID,0.541797,
2010-09-16, 00:27:04,VALID,918.46,VALID,0,VALID,96.0398,VALID,0,VALID,19.1164,VALID,145,VALID,0.79375,
2010-09-16, 00:28:04,VALID,918.454,VALID,0,VALID,96.0474,VALID,0,VALID,19.0969,VALID,145,VALID,1.20508,
2010-09-16, 00:29:04,VALID,918.432,VALID,0,VALID,96.1008,VALID,0,VALID,19.0969,VALID,145,VALID,1.47656,
2010-09-16, 00:30:04,VALID,918.424,VALID,0,VALID,95.9712,VALID,0.107441,VALID,19.1359,VALID,144,VALID,1.63281,
2010-09-16, 00:31:04,VALID,918.434,VALID,0,VALID,95.773,VALID,0,VALID,19.1944,VALID,95,VALID,1.89414,
2010-09-16, 00:32:04,VALID,918.423,VALID,0,VALID,95.6357,VALID,0,VALID,19.2918,VALID,11,VALID,1.41055,
2010-09-16, 00:33:04,VALID,918.42,VALID,0,VALID,95.529,VALID,0,VALID,19.3323,VALID,13,VALID,0.659766,
2010-09-16, 00:34:04,VALID,918.404,VALID,0,VALID,95.5138,VALID,0.107441,VALID,19.3503,VALID,13,VALID,0.200391,
2010-09-16, 00:35:04,VALID,918.384,VALID,0,VALID,95.4375,VALID,0,VALID,19.3308,VALID,13,VALID,0.743359,
2010-09-16, 00:36:04,VALID,918.362,VALID,0,VALID,95.1936,VALID,0,VALID,19.2918,VALID,14,VALID,0.891016,
2010-09-16, 00:37:04,VALID,918.346,VALID,0,VALID,95.0183,VALID,0.107441,VALID,19.2918,VALID,14,VALID,0.751172,
2010-09-16, 00:38:04,VALID,918.329,VALID,0,VALID,94.8277,VALID,0,VALID,19.3113,VALID,156,VALID,0.714844,
2010-09-16, 00:39:04,VALID,918.311,VALID,0.2,VALID,94.7362,VALID,0,VALID,19.3113,VALID,156,VALID,1.09844,
2010-09-16, 00:40:04,VALID,918.314,VALID,0,VALID,94.5532,VALID,0,VALID,19.3503,VALID,156,VALID,0.803906,
2010-09-16, 00:41:04,VALID,918.29,VALID,0,VALID,94.4846,VALID,0,VALID,19.3503,VALID,156,VALID,0.934375,
2010-09-16, 00:42:04,VALID,918.275,VALID,0,VALID,94.4617,VALID,0.107441,VALID,19.3503,VALID,156,VALID,0.957422,
2010-09-16, 00:43:04,VALID,918.263,VALID,0,VALID,94.6218,VALID,0.107441,VALID,19.3503,VALID,156,VALID,0.508203,
2010-09-16, 00:44:04,VALID,918.286,VALID,0,VALID,94.5761,VALID,0.107441,VALID,19.3308,VALID,155,VALID,0.822656,
2010-09-16, 00:45:04,VALID,918.26,VALID,0,VALID,94.6828,VALID,0.107441,VALID,19.3113,VALID,155,VALID,0.832422,
2010-09-16, 00:46:04,VALID,918.271,VALID,0,VALID,94.7743,VALID,0.107441,VALID,19.2528,VALID,155,VALID,0.922266,
2010-09-16, 00:47:04,VALID,918.281,VALID,0,VALID,94.9344,VALID,0.107441,VALID,19.2334,VALID,155,VALID,0.702734,
2010-09-16, 00:48:04,VALID,918.256,VALID,0,VALID,95.003,VALID,0.107441,VALID,19.2139,VALID,155,VALID,0.807813,
2010-09-16, 00:49:04,VALID,918.261,VALID,0,VALID,95.1021,VALID,0.107441,VALID,19.1944,VALID,155,VALID,0.975391,
2010-09-16, 00:50:04,VALID,918.238,VALID,0,VALID,95.2088,VALID,0.107441,VALID,19.1944,VALID,155,VALID,1.02461,
2010-09-16, 00:51:04,VALID,918.26,VALID,0,VALID,95.3384,VALID,0,VALID,19.1944,VALID,155,VALID,0.691797,
2010-09-16, 00:52:04,VALID,918.226,VALID,0,VALID,95.4757,VALID,0.107441,VALID,19.1749,VALID,155,VALID,0.648828,
2010-09-16, 00:53:04,VALID,918.262,VALID,0,VALID,95.6281,VALID,0.107441,VALID,19.1944,VALID,155,VALID,0.450391,
2010-09-16, 00:54:04,VALID,918.262,VALID,0,VALID,95.6967,VALID,0,VALID,19.1749,VALID,155,VALID,0.603516,
2010-09-16, 00:55:04,VALID,918.189,VALID,0,VALID,95.7958,VALID,0,VALID,19.1749,VALID,154,VALID,0.725781,
2010-09-16, 00:56:04,VALID,918.196,VALID,0,VALID,95.8721,VALID,0,VALID,19.1359,VALID,154,VALID,0.798437,
2010-09-16, 00:57:04,VALID,918.207,VALID,0,VALID,95.9254,VALID,0,VALID,19.1178,VALID,154,VALID,0.564062,
2010-09-16, 00:58:04,VALID,918.199,VALID,0,VALID,96.0245,VALID,0,VALID,19.1178,VALID,152,VALID,0.696875,
2010-09-16, 00:59:04,VALID,918.132,VALID,0,VALID,96.0932,VALID,0,VALID,19.1178,VALID,112,VALID,0.885547,
2010-09-16, 01:00:04,VALID,918.138,VALID,0,VALID,96.177,VALID,0,VALID,19.0969,VALID,161,VALID,0.944141,
2010-09-16, 01:01:04,VALID,918.074,VALID,0,VALID,96.238,VALID,0,VALID,19.1164,VALID,161,VALID,0.558984,
2010-09-16, 01:02:04,VALID,918.087,VALID,0,VALID,96.3295,VALID,0,VALID,19.1359,VALID,161,VALID,0.562109,
2010-09-16, 01:03:04,VALID,918.034,VALID,0,VALID,96.36,VALID,0,VALID,19.1373,VALID,161,VALID,0.58125,
2010-09-16, 01:04:04,VALID,918.04,VALID,0,VALID,96.4286,VALID,0,VALID,19.1568,VALID,161,VALID,0.551953,
2010-09-16, 01:05:04,VALID,918.039,VALID,0,VALID,96.421,VALID,0,VALID,19.1568,VALID,161,VALID,0.570313,
2010-09-16, 01:06:04,VALID,918.047,VALID,0,VALID,96.421,VALID,0,VALID,19.1164,VALID,161,VALID,0.322656,
2010-09-16, 01:07:04,VALID,918.033,VALID,0,VALID,96.3905,VALID,0,VALID,19.0983,VALID,161,VALID,0.7875,
2010-09-16, 01:08:04,VALID,918.021,VALID,0,VALID,96.4362,VALID,0,VALID,19.1178,VALID,161,VALID,0.839063,
2010-09-16, 01:09:04,VALID,918.028,VALID,0,VALID,96.4286,VALID,0,VALID,19.0774,VALID,134,VALID,1.09492,
2010-09-16, 01:10:04,VALID,918.031,VALID,0,VALID,96.4515,VALID,0,VALID,19.1178,VALID,124,VALID,0.768359,
2010-09-16, 01:11:04,VALID,918.055,VALID,0,VALID,96.4438,VALID,0,VALID,19.0969,VALID,93,VALID,1.20625,
2010-09-16, 01:12:04,VALID,918.063,VALID,0.2,VALID,96.3981,VALID,0,VALID,19.0774,VALID,79,VALID,0.899219,
2010-09-16, 01:13:04,VALID,918.032,VALID,0,VALID,96.3524,VALID,0,VALID,19.0983,VALID,79,VALID,0.947656,
2010-09-16, 01:14:04,VALID,918.039,VALID,0,VALID,96.3142,VALID,0,VALID,19.0189,VALID,79,VALID,0.625,
2010-09-16, 01:15:04,VALID,918.011,VALID,0,VALID,96.3219,VALID,0,VALID,19.0593,VALID,80,VALID,0.757031,
2010-09-16, 01:16:04,VALID,918.023,VALID,0,VALID,96.3142,VALID,0,VALID,19.0398,VALID,130,VALID,1.16992,
2010-09-16, 01:17:04,VALID,917.972,VALID,0,VALID,96.3447,VALID,0,VALID,19.0398,VALID,130,VALID,0.938672,
2010-09-16, 01:18:04,VALID,917.965,VALID,0,VALID,96.3295,VALID,0,VALID,19.0203,VALID,129,VALID,1.09453,
2010-09-16, 01:19:04,VALID,917.959,VALID,0,VALID,96.36,VALID,0,VALID,19.0398,VALID,79,VALID,1.03516,
2010-09-16, 01:20:04,VALID,917.94,VALID,0,VALID,96.3752,VALID,0,VALID,18.9994,VALID,146,VALID,1.38203,
2010-09-16, 01:21:04,VALID,917.927,VALID,0,VALID,96.3981,VALID,0,VALID,18.9994,VALID,159,VALID,1.14531,
2010-09-16, 01:22:04,VALID,917.898,VALID,0,VALID,96.4667,VALID,0,VALID,19.0189,VALID,164,VALID,1.12109,
2010-09-16, 01:23:04,VALID,917.873,VALID,0,VALID,96.4819,VALID,0,VALID,19.0384,VALID,145,VALID,0.907031,
2010-09-16, 01:24:04,VALID,917.84,VALID,0,VALID,96.5429,VALID,0,VALID,19.0593,VALID,145,VALID,0.951172,
2010-09-16, 01:25:04,VALID,917.845,VALID,0,VALID,96.5506,VALID,0,VALID,19.0593,VALID,145,VALID,0.990234,
2010-09-16, 01:26:04,VALID,917.816,VALID,0,VALID,96.5734,VALID,0,VALID,19.0398,VALID,125,VALID,1.20938,
2010-09-16, 01:27:04,VALID,917.78,VALID,0,VALID,96.6115,VALID,0,VALID,19.0384,VALID,145,VALID,0.922656,
2010-09-16, 01:28:04,VALID,917.785,VALID,0,VALID,96.6268,VALID,0,VALID,19.0788,VALID,184,VALID,0.941016,
2010-09-16, 01:29:04,VALID,917.778,VALID,0,VALID,96.6802,VALID,0,VALID,19.0788,VALID,164,VALID,1.00273,
2010-09-16, 01:30:04,VALID,917.803,VALID,0,VALID,96.6725,VALID,0,VALID,19.0593,VALID,174,VALID,1.59961,
2010-09-16, 01:31:04,VALID,917.778,VALID,0,VALID,96.6878,VALID,0,VALID,19.0384,VALID,165,VALID,1.28906,
2010-09-16, 01:32:04,VALID,917.803,VALID,0.2,VALID,96.7564,VALID,0,VALID,19.0788,VALID,145,VALID,0.925391,
2010-09-16, 01:33:04,VALID,917.821,VALID,0,VALID,96.764,VALID,0,VALID,19.0384,VALID,175,VALID,1.325,
2010-09-16, 01:34:04,VALID,917.809,VALID,0,VALID,96.7793,VALID,0,VALID,19.0398,VALID,181,VALID,1.39023,
2010-09-16, 01:35:04,VALID,917.818,VALID,0,VALID,96.7793,VALID,0,VALID,19.0189,VALID,172,VALID,1.2543,
2010-09-16, 01:36:04,VALID,917.828,VALID,0,VALID,96.8098,VALID,0,VALID,19.0189,VALID,164,VALID,1.02578,
2010-09-16, 01:37:04,VALID,917.805,VALID,0,VALID,96.8403,VALID,0,VALID,19.0189,VALID,164,VALID,0.986719,
2010-09-16, 01:38:04,VALID,917.809,VALID,0,VALID,96.8479,VALID,0,VALID,19.0189,VALID,164,VALID,0.882031,
2010-09-16, 01:39:04,VALID,917.796,VALID,0,VALID,96.8631,VALID,0,VALID,19.0398,VALID,164,VALID,0.691016,
2010-09-16, 01:40:04,VALID,917.786,VALID,0,VALID,96.8707,VALID,0,VALID,18.9994,VALID,164,VALID,0.835938,
2010-09-16, 01:41:04,VALID,917.77,VALID,0,VALID,96.8936,VALID,0,VALID,19.0189,VALID,164,VALID,0.982031,
2010-09-16, 01:42:04,VALID,917.744,VALID,0,VALID,96.9012,VALID,0,VALID,19.0189,VALID,164,VALID,0.248828,
2010-09-16, 01:43:04,VALID,917.785,VALID,0,VALID,96.9012,VALID,0,VALID,19.0398,VALID,164,VALID,0.263281,
2010-09-16, 01:44:04,VALID,917.758,VALID,0,VALID,96.8631,VALID,0,VALID,19.0203,VALID,164,VALID,0.475781,
2010-09-16, 01:45:04,VALID,917.759,VALID,0,VALID,96.9317,VALID,0,VALID,19.0189,VALID,164,VALID,0,
2010-09-16, 01:46:04,VALID,917.726,VALID,0,VALID,96.9698,VALID,0,VALID,19.0788,VALID,164,VALID,0.262109,
2010-09-16, 01:47:04,VALID,917.681,VALID,0,VALID,96.9012,VALID,0,VALID,19.0398,VALID,164,VALID,0.360156,
2010-09-16, 01:48:04,VALID,917.706,VALID,0,VALID,96.8784,VALID,0,VALID,18.9994,VALID,164,VALID,0.869922,
2010-09-16, 01:49:04,VALID,917.689,VALID,0,VALID,96.8555,VALID,0,VALID,18.9799,VALID,164,VALID,0.953125,
2010-09-16, 01:50:04,VALID,917.692,VALID,0,VALID,96.8631,VALID,0,VALID,19.0189,VALID,164,VALID,0.308203,
2010-09-16, 01:51:04,VALID,917.646,VALID,0,VALID,96.8326,VALID,0,VALID,18.9994,VALID,164,VALID,0.432422,
2010-09-16, 01:52:04,VALID,917.649,VALID,0,VALID,96.8403,VALID,0,VALID,19.0189,VALID,164,VALID,0.0476562,
2010-09-16, 01:53:04,VALID,917.634,VALID,0,VALID,96.8707,VALID,0,VALID,19.0189,VALID,164,VALID,0.0078125,
2010-09-16, 01:54:04,VALID,917.608,VALID,0,VALID,96.8784,VALID,0,VALID,19.0593,VALID,164,VALID,0.297656,
2010-09-16, 01:55:04,VALID,917.605,VALID,0.2,VALID,96.8403,VALID,0,VALID,19.0398,VALID,164,VALID,0.414844,
2010-09-16, 01:56:04,VALID,917.573,VALID,0,VALID,96.8098,VALID,0,VALID,19.0398,VALID,164,VALID,0.45625,
2010-09-16, 01:57:04,VALID,917.572,VALID,0,VALID,96.7793,VALID,0,VALID,18.9994,VALID,164,VALID,0.380469,
2010-09-16, 01:58:04,VALID,917.52,VALID,0,VALID,96.7411,VALID,0,VALID,18.9994,VALID,164,VALID,0.574609,
2010-09-16, 01:59:04,VALID,917.526,VALID,0,VALID,96.7259,VALID,0,VALID,18.9799,VALID,163,VALID,0.816406,
2010-09-16, 02:00:04,VALID,917.508,VALID,0,VALID,96.703,VALID,0,VALID,18.9799,VALID,136,VALID,0.783594,
2010-09-16, 02:01:04,VALID,917.502,VALID,0,VALID,96.6802,VALID,0,VALID,18.9799,VALID,136,VALID,0.529688,
2010-09-16, 02:02:04,VALID,917.492,VALID,0,VALID,96.6344,VALID,0,VALID,18.9409,VALID,136,VALID,1.30273,
2010-09-16, 02:03:04,VALID,917.488,VALID,0,VALID,96.6115,VALID,0,VALID,18.9619,VALID,136,VALID,1.14688,
2010-09-16, 02:04:04,VALID,917.446,VALID,0,VALID,96.5887,VALID,0,VALID,18.9619,VALID,136,VALID,1.08125,
2010-09-16, 02:05:04,VALID,917.464,VALID,0,VALID,96.6039,VALID,0,VALID,18.9424,VALID,120,VALID,0.944141,
2010-09-16, 02:06:04,VALID,917.444,VALID,0,VALID,96.6115,VALID,0,VALID,18.9424,VALID,120,VALID,0.600781,
2010-09-16, 02:07:04,VALID,917.453,VALID,0,VALID,96.6039,VALID,0,VALID,18.9229,VALID,140,VALID,1.42031,
2010-09-16, 02:08:04,VALID,917.416,VALID,0,VALID,96.6573,VALID,0,VALID,18.9229,VALID,169,VALID,0.950391,
2010-09-16, 02:09:04,VALID,917.426,VALID,0,VALID,96.7107,VALID,0,VALID,18.9229,VALID,174,VALID,1.60352,
2010-09-16, 02:10:04,VALID,917.451,VALID,0,VALID,96.7259,VALID,0,VALID,18.9214,VALID,178,VALID,1.17969,
2010-09-16, 02:11:04,VALID,917.425,VALID,0,VALID,96.7335,VALID,0,VALID,18.9424,VALID,178,VALID,0.451562,
2010-09-16, 02:12:04,VALID,917.443,VALID,0,VALID,96.7869,VALID,0.107441,VALID,18.9424,VALID,169,VALID,1.33242,
2010-09-16, 02:13:04,VALID,917.43,VALID,0,VALID,96.8174,VALID,0,VALID,18.9604,VALID,161,VALID,0.953125,
2010-09-16, 02:14:04,VALID,917.425,VALID,0,VALID,96.825,VALID,0,VALID,18.9619,VALID,127,VALID,0.303125,
2010-09-16, 02:15:04,VALID,917.369,VALID,0,VALID,96.8403,VALID,0,VALID,18.9604,VALID,127,VALID,0.791016,
2010-09-16, 02:16:04,VALID,917.364,VALID,0,VALID,96.8555,VALID,0,VALID,18.9409,VALID,127,VALID,0.470313,
2010-09-16, 02:17:04,VALID,917.379,VALID,0,VALID,96.8326,VALID,0,VALID,18.9424,VALID,127,VALID,0.961328,
2010-09-16, 02:18:04,VALID,917.384,VALID,0,VALID,96.8631,VALID,0,VALID,18.9019,VALID,154,VALID,0.819531,
2010-09-16, 02:19:04,VALID,917.388,VALID,0,VALID,96.886,VALID,0,VALID,18.9214,VALID,154,VALID,0.505469,
2010-09-16, 02:20:04,VALID,917.397,VALID,0,VALID,96.886,VALID,0,VALID,18.9424,VALID,154,VALID,0.914453,
2010-09-16, 02:21:04,VALID,917.403,VALID,0,VALID,96.886,VALID,0,VALID,18.9019,VALID,154,VALID,0.757031,
2010-09-16, 02:22:04,VALID,917.39,VALID,0,VALID,96.886,VALID,0,VALID,18.9229,VALID,136,VALID,0.666797,
2010-09-16, 02:23:04,VALID,917.404,VALID,0,VALID,96.8936,VALID,0,VALID,18.9019,VALID,137,VALID,1.01602,
2010-09-16, 02:24:04,VALID,917.411,VALID,0,VALID,96.886,VALID,0,VALID,18.9229,VALID,137,VALID,0.933203,
2010-09-16, 02:25:04,VALID,917.437,VALID,0,VALID,96.9165,VALID,0,VALID,18.9019,VALID,138,VALID,0.639453,
2010-09-16, 02:26:04,VALID,917.419,VALID,0,VALID,96.9165,VALID,0,VALID,18.9229,VALID,138,VALID,0.825391,
2010-09-16, 02:27:04,VALID,917.443,VALID,0,VALID,96.8936,VALID,0,VALID,18.9034,VALID,138,VALID,0.407422,
2010-09-16, 02:28:04,VALID,917.454,VALID,0,VALID,96.9089,VALID,0,VALID,18.9034,VALID,138,VALID,0.901172,
2010-09-16, 02:29:04,VALID,917.443,VALID,0,VALID,96.9089,VALID,0,VALID,18.9034,VALID,173,VALID,1.09727,
2010-09-16, 02:30:04,VALID,917.433,VALID,0,VALID,96.9012,VALID,0,VALID,18.8629,VALID,173,VALID,0.689453,
2010-09-16, 02:31:04,VALID,917.428,VALID,0,VALID,96.8707,VALID,0,VALID,18.8434,VALID,172,VALID,0.569141,
2010-09-16, 02:32:04,VALID,917.423,VALID,0,VALID,96.8631,VALID,0,VALID,18.8449,VALID,150,VALID,0.771875,
2010-09-16, 02:33:04,VALID,917.412,VALID,0,VALID,96.8098,VALID,0,VALID,18.8045,VALID,149,VALID,0.998828,
2010-09-16, 02:34:04,VALID,917.393,VALID,0,VALID,96.764,VALID,0,VALID,18.7655,VALID,121,VALID,1.2582,
2010-09-16, 02:35:04,VALID,917.384,VALID,0,VALID,96.764,VALID,0,VALID,18.746,VALID,121,VALID,1.03711,
2010-09-16, 02:36:04,VALID,917.365,VALID,0,VALID,96.7335,VALID,0,VALID,18.746,VALID,121,VALID,1.09297,
2010-09-16, 02:37:04,VALID,917.359,VALID,0,VALID,96.6954,VALID,0,VALID,18.7669,VALID,121,VALID,1.0625,
2010-09-16, 02:38:04,VALID,917.351,VALID,0,VALID,96.6878,VALID,0,VALID,18.7265,VALID,121,VALID,0.972656,
2010-09-16, 02:39:04,VALID,917.343,VALID,0,VALID,96.6649,VALID,0,VALID,18.7279,VALID,121,VALID,1.20234,
2010-09-16, 02:40:04,VALID,917.347,VALID,0,VALID,96.6497,VALID,0,VALID,18.6875,VALID,121,VALID,0.816016,
2010-09-16, 02:41:04,VALID,917.289,VALID,0,VALID,96.5963,VALID,0,VALID,18.6875,VALID,121,VALID,1.60703,
2010-09-16, 02:42:04,VALID,917.266,VALID,0,VALID,96.5887,VALID,0,VALID,18.7084,VALID,121,VALID,1.09141,
2010-09-16, 02:43:04,VALID,917.27,VALID,0,VALID,96.5658,VALID,0,VALID,18.6889,VALID,121,VALID,0.851563,
2010-09-16, 02:44:04,VALID,917.251,VALID,0,VALID,96.5277,VALID,0,VALID,18.668,VALID,121,VALID,0.832031,
2010-09-16, 02:45:04,VALID,917.292,VALID,0,VALID,96.5353,VALID,0,VALID,18.6889,VALID,122,VALID,1.30156,
2010-09-16, 02:46:04,VALID,917.275,VALID,0,VALID,96.5201,VALID,0,VALID,18.668,VALID,122,VALID,0.751172,
2010-09-16, 02:47:04,VALID,917.236,VALID,0,VALID,96.5124,VALID,0,VALID,18.6889,VALID,150,VALID,1.00273,
2010-09-16, 02:48:04,VALID,917.241,VALID,0,VALID,96.4743,VALID,0,VALID,18.6694,VALID,141,VALID,0.945703,
2010-09-16, 02:49:04,VALID,917.226,VALID,0,VALID,96.4667,VALID,0,VALID,18.6694,VALID,141,VALID,1.08555,
2010-09-16, 02:50:04,VALID,917.237,VALID,0,VALID,96.4438,VALID,0,VALID,18.668,VALID,158,VALID,1.12578,
2010-09-16, 02:51:04,VALID,917.214,VALID,0,VALID,96.4515,VALID,0,VALID,18.668,VALID,146,VALID,1.175,
2010-09-16, 02:52:04,VALID,917.195,VALID,0,VALID,96.4057,VALID,0,VALID,18.668,VALID,133,VALID,0.818359,
2010-09-16, 02:53:04,VALID,917.183,VALID,0,VALID,96.3295,VALID,0,VALID,18.6485,VALID,112,VALID,1.01875,
2010-09-16, 02:54:04,VALID,917.181,VALID,0,VALID,96.2228,VALID,0,VALID,18.6499,VALID,121,VALID,1.90352,
2010-09-16, 02:55:04,VALID,917.167,VALID,0,VALID,96.0855,VALID,0,VALID,18.629,VALID,131,VALID,1.4207,
2010-09-16, 02:56:04,VALID,917.181,VALID,0,VALID,95.9788,VALID,0,VALID,18.6694,VALID,129,VALID,1.01953,
2010-09-16, 02:57:04,VALID,917.145,VALID,0.2,VALID,95.8721,VALID,0,VALID,18.6694,VALID,129,VALID,1.3125,
2010-09-16, 02:58:04,VALID,917.155,VALID,0,VALID,95.8187,VALID,0,VALID,18.6485,VALID,130,VALID,1,
2010-09-16, 02:59:04,VALID,917.166,VALID,0,VALID,95.7882,VALID,0,VALID,18.6499,VALID,142,VALID,0.606641,
2010-09-16, 03:00:04,VALID,917.136,VALID,0,VALID,95.8111,VALID,0,VALID,18.6304,VALID,142,VALID,0.737891,
2010-09-16, 03:01:04,VALID,917.143,VALID,0,VALID,95.8568,VALID,0,VALID,18.6109,VALID,142,VALID,1.07383,
2010-09-16, 03:02:04,VALID,917.133,VALID,0,VALID,95.8721,VALID,0,VALID,18.6109,VALID,188,VALID,0.782031,
2010-09-16, 03:03:04,VALID,917.119,VALID,0,VALID,95.9331,VALID,0,VALID,18.6304,VALID,161,VALID,1.01914,
2010-09-16, 03:04:04,VALID,917.109,VALID,0,VALID,95.9407,VALID,0,VALID,18.6095,VALID,158,VALID,0.959375,
2010-09-16, 03:05:04,VALID,917.145,VALID,0,VALID,95.8492,VALID,0,VALID,18.6095,VALID,151,VALID,1.10703,
2010-09-16, 03:06:04,VALID,917.112,VALID,0,VALID,95.7958,VALID,0,VALID,18.59,VALID,133,VALID,0.757813,
2010-09-16, 03:07:04,VALID,917.1,VALID,0,VALID,95.7349,VALID,0,VALID,18.59,VALID,133,VALID,0.807422,
2010-09-16, 03:08:04,VALID,917.079,VALID,0,VALID,95.712,VALID,0,VALID,18.6109,VALID,133,VALID,1.18125,
2010-09-16, 03:09:04,VALID,917.071,VALID,0,VALID,95.6739,VALID,0,VALID,18.5914,VALID,124,VALID,1.48828,
2010-09-16, 03:10:04,VALID,917.094,VALID,0,VALID,95.7044,VALID,0,VALID,18.5914,VALID,77,VALID,0.819141,
2010-09-16, 03:11:04,VALID,917.096,VALID,0,VALID,95.6891,VALID,0,VALID,18.572,VALID,87,VALID,1.36172,
2010-09-16, 03:12:04,VALID,917.093,VALID,0,VALID,95.6891,VALID,0,VALID,18.572,VALID,93,VALID,1.59102,
2010-09-16, 03:13:04,VALID,917.077,VALID,0,VALID,95.6967,VALID,0,VALID,18.5316,VALID,104,VALID,1.28867,
2010-09-16, 03:14:04,VALID,917.074,VALID,0,VALID,95.7425,VALID,0,VALID,18.5316,VALID,67,VALID,1.01797,
2010-09-16, 03:15:04,VALID,917.093,VALID,0,VALID,95.7196,VALID,0,VALID,18.5121,VALID,99,VALID,1.29453,
2010-09-16, 03:16:04,VALID,917.104,VALID,0,VALID,95.7577,VALID,0,VALID,18.5316,VALID,90,VALID,0.848047,
2010-09-16, 03:17:04,VALID,917.103,VALID,0,VALID,95.8035,VALID,0,VALID,18.533,VALID,90,VALID,0.984766,
2010-09-16, 03:18:04,VALID,917.081,VALID,0,VALID,95.7958,VALID,0,VALID,18.5121,VALID,90,VALID,0.910547,
2010-09-16, 03:19:04,VALID,917.105,VALID,0,VALID,95.8035,VALID,0,VALID,18.5121,VALID,90,VALID,1.07187,
2010-09-16, 03:20:04,VALID,917.075,VALID,0,VALID,95.7806,VALID,0,VALID,18.5135,VALID,110,VALID,1.3043,
2010-09-16, 03:21:04,VALID,917.057,VALID,0,VALID,95.7654,VALID,0,VALID,18.5135,VALID,111,VALID,1.29609,
2010-09-16, 03:22:04,VALID,917.067,VALID,0,VALID,95.7577,VALID,0,VALID,18.5135,VALID,111,VALID,1.04023,
2010-09-16, 03:23:04,VALID,917.062,VALID,0,VALID,95.7272,VALID,0,VALID,18.5135,VALID,111,VALID,0.769141,
2010-09-16, 03:24:04,VALID,917.054,VALID,0,VALID,95.7425,VALID,0,VALID,18.533,VALID,111,VALID,0.484375,
2010-09-16, 03:25:04,VALID,917.068,VALID,0,VALID,95.7196,VALID,0,VALID,18.4926,VALID,111,VALID,1.01016,
2010-09-16, 03:26:04,VALID,917.044,VALID,0.2,VALID,95.6586,VALID,0,VALID,18.5135,VALID,111,VALID,0.772266,
2010-09-16, 03:27:04,VALID,917.024,VALID,0,VALID,95.6281,VALID,0,VALID,18.5135,VALID,111,VALID,0.516406,
2010-09-16, 03:28:04,VALID,917.047,VALID,0,VALID,95.7349,VALID,0,VALID,18.5135,VALID,111,VALID,0.270312,
2010-09-16, 03:29:04,VALID,917.012,VALID,0,VALID,95.6967,VALID,0,VALID,18.494,VALID,111,VALID,0.335156,
2010-09-16, 03:30:04,VALID,916.99,VALID,0,VALID,95.6739,VALID,0,VALID,18.494,VALID,111,VALID,0.332031,
2010-09-16, 03:31:04,VALID,916.984,VALID,0,VALID,95.7196,VALID,0,VALID,18.494,VALID,111,VALID,0.309766,
2010-09-16, 03:32:04,VALID,916.958,VALID,0,VALID,95.773,VALID,0,VALID,18.494,VALID,111,VALID,0.00351562,
2010-09-16, 03:33:04,VALID,916.937,VALID,0,VALID,95.773,VALID,0,VALID,18.4745,VALID,111,VALID,0.516016,
2010-09-16, 03:34:04,VALID,916.955,VALID,0,VALID,95.8263,VALID,0,VALID,18.4745,VALID,111,VALID,0.614844,
2010-09-16, 03:35:04,VALID,916.925,VALID,0,VALID,95.9026,VALID,0,VALID,18.494,VALID,111,VALID,0.332031,
2010-09-16, 03:36:04,VALID,916.919,VALID,0,VALID,95.9407,VALID,0,VALID,18.4926,VALID,111,VALID,0.424609,
2010-09-16, 03:37:04,VALID,916.9,VALID,0,VALID,96.0093,VALID,0,VALID,18.5135,VALID,111,VALID,0.482031,
2010-09-16, 03:38:04,VALID,916.951,VALID,0,VALID,96.0398,VALID,0,VALID,18.5135,VALID,111,VALID,0.335547,
2010-09-16, 03:39:04,VALID,916.947,VALID,0,VALID,96.0855,VALID,0,VALID,18.494,VALID,111,VALID,0.775,
2010-09-16, 03:40:04,VALID,916.949,VALID,0,VALID,96.1236,VALID,0,VALID,18.4745,VALID,111,VALID,0.626953,
2010-09-16, 03:41:04,VALID,916.951,VALID,0,VALID,96.1541,VALID,0,VALID,18.455,VALID,111,VALID,0.686328,
2010-09-16, 03:42:04,VALID,916.971,VALID,0,VALID,96.1846,VALID,0,VALID,18.4146,VALID,111,VALID,0.189453,
2010-09-16, 03:43:04,VALID,916.948,VALID,0,VALID,96.1846,VALID,0,VALID,18.4355,VALID,111,VALID,0.352734,
2010-09-16, 03:44:04,VALID,916.95,VALID,0,VALID,96.2456,VALID,0,VALID,18.4341,VALID,111,VALID,0.257813,